Location: *
(44.3683°N, 6.6958°E)
Time: 15:18:33
(UTC+00:00)

USA 238 DEB - Pass Details

Date: 14 October 2019
Orbit: 1026 x 1186 km, 63.4° (Epoch: 19 November)

Event Time Altitude Azimuth Distance (km) Brightness Sun altitude
Rises 18:39:04 0° 186° (S) 3,761 6.6 -20.0°
Reaches altitude 10° 18:41:51 10° 178° (S) 2,821 5.8 -20.5°
Enters shadow 18:47:26 36° 121° (ESE) 1,594 4.1 -21.5°
